FW6490 Weather Reports


Display with metric or nautical units.
time (UTC)temp
F
wind
direction
speed
MPH
gust
MPH
rain 1hr
in
rain 24hr
in
rain mn
in
humidity
%
barometer
mb
20260508035541 56 322 2.0 6.0 0.00 0.00 0.00 89 1011.3
20260508035048 56 9 2.0 6.0 0.00 0.00 0.00 89 1011.3
20260508034537 56 279 2.0 6.0 0.00 0.00 0.00 89 1011.3
20260508034036 56 296 1.0 6.0 0.00 0.00 0.00 89 1011.1
20260508033531 56 294 1.0 7.0 0.00 0.00 0.00 89 1011.1
20260508032526 56 277 2.0 6.0 0.00 0.00 0.00 88 1011.0
20260508032025 56 321 3.0 7.0 0.00 0.00 0.00 88 1011.0
20260508031523 56 351 3.0 7.0 0.00 0.00 0.00 88 1011.0
20260508031023 56 343 3.0 9.0 0.00 0.00 0.00 88 1010.8
20260508030522 56 298 3.0 9.0 0.00 0.00 0.00 88 1010.8
20260508030020 56 281 4.0 8.0 0.00 0.00 0.00 87 1010.8
20260508025524 56 298 4.0 9.0 0.00 0.00 0.00 87 1010.7
20260508025026 57 323 5.0 9.0 0.00 0.00 0.00 87 1010.7
20260508024519 57 331 4.0 8.0 0.00 0.00 0.00 86 1010.7
20260508024014 57 344 4.0 8.0 0.00 0.00 0.00 86 1010.8
20260508023514 57 310 5.0 12.0 0.00 0.00 0.00 86 1010.8
20260508023014 57 324 5.0 12.0 0.00 0.00 0.00 85 1010.8
20260508022012 58 330 4.0 9.0 0.00 0.00 0.00 83 1010.7
20260508021008 59 348 4.0 9.0 0.00 0.00 0.00 81 1010.7
20260508020509 59 0 4.0 10.0 0.00 0.00 0.00 81 1010.7
20260508015502 60 326 4.0 10.0 0.00 0.00 0.00 80 1010.6
20260508015002 60 337 4.0 9.0 0.00 0.00 0.00 80 1010.6
20260508014500 61 345 4.0 9.0 0.00 0.00 0.00 79 1010.6
20260508014001 61 321 5.0 9.0 0.00 0.00 0.00 78 1010.6
20260508013455 61 0 5.0 10.0 0.00 0.00 0.00 78 1010.6
20260508012952 62 321 5.0 10.0 0.00 0.00 0.00 78 1010.6
20260508012452 62 309 6.0 16.0 0.00 0.00 0.00 77 1010.5
20260508011951 62 323 5.0 16.0 0.00 0.00 0.00 76 1010.5
20260508011449 63 297 5.0 11.0 0.00 0.00 0.00 75 1010.5
20260508010947 63 298 5.0 14.0 0.00 0.00 0.00 75 1010.2
20260508010451 63 311 5.0 14.0 0.00 0.00 0.00 75 1010.2
20260508005947 64 334 5.0 13.0 0.00 0.00 0.00 74 1010.2
20260508005446 64 336 5.0 10.0 0.00 0.00 0.00 74 1010.2
20260508004942 64 17 6.0 12.0 0.00 0.00 0.00 74 1010.2
20260508004444 64 0 6.0 12.0 0.00 0.00 0.00 73 1010.2
20260508003941 65 355 5.0 11.0 0.00 0.00 0.00 73 1010.2
20260508001937 65 311 7.0 14.0 0.00 0.00 0.00 73 1010.2
20260508001433 65 321 7.0 14.0 0.00 0.00 0.00 72 1010.2
20260508000930 65 340 7.0 14.0 0.00 0.00 0.00 72 1010.1
20260508000434 65 355 6.0 14.0 0.00 0.00 0.00 73 1010.1
20260507235935 66 315 6.0 15.0 0.00 0.00 0.00 72 1010.1
20260507235428 66 342 6.0 15.0 0.00 0.00 0.00 72 1010.1
20260507234925 66 277 5.0 13.0 0.00 0.00 0.00 72 1010.1
20260507234426 66 5 5.0 13.0 0.00 0.00 0.00 71 1010.1
20260507233921 66 323 5.0 13.0 0.00 0.00 0.00 71 1010.1
20260507233421 67 321 5.0 14.0 0.00 0.00 0.00 71 1010.1
20260507232918 66 11 5.0 14.0 0.00 0.00 0.00 73 1010.1
20260507232415 66 331 5.0 13.0 0.00 0.00 0.00 73 1010.2
20260507231916 65 325 6.0 14.0 0.00 0.00 0.00 75 1010.2
20260507231411 65 309 5.0 14.0 0.00 0.00 0.00 74 1010.2
20260507230911 66 325 6.0 14.0 0.00 0.00 0.00 73 1010.2
20260507230412 66 333 6.0 14.0 0.00 0.00 0.00 71 1010.2
20260507225408 67 313 5.0 11.0 0.00 0.00 0.00 72 1010.2
20260507224910 67 321 6.0 14.0 0.00 0.00 0.00 72 1010.2
20260507224406 67 338 6.0 14.0 0.00 0.00 0.00 71 1010.2
20260507223906 67 314 6.0 12.0 0.00 0.00 0.00 72 1010.2
20260507222900 67 292 6.0 12.0 0.00 0.00 0.00 72 1010.2
20260507222401 67 318 6.0 13.0 0.00 0.00 0.00 71 1010.2
20260507221356 68 317 6.0 13.0 0.00 0.00 0.00 72 1010.3
20260507215348 67 315 7.0 16.0 0.00 0.00 0.00 72 1010.7
20260507214852 67 314 8.0 14.0 0.00 0.00 0.00 73 1010.7
20260507214352 67 300 7.0 14.0 0.00 0.00 0.00 73 1010.8
20260507213846 67 309 7.0 14.0 0.00 0.00 0.00 72 1010.8
20260507213344 68 300 7.0 14.0 0.00 0.00 0.00 71 1010.8
20260507212343 68 320 7.0 15.0 0.00 0.00 0.00 72 1011.0
20260507211341 69 313 6.0 14.0 0.00 0.00 0.00 70 1011.0
20260507210841 68 337 6.0 14.0 0.00 0.00 0.00 71 1011.0
20260507210335 68 323 7.0 14.0 0.00 0.00 0.00 71 1011.0
20260507205834 68 335 7.0 14.0 0.00 0.00 0.00 71 1011.1
20260507205334 69 286 6.0 14.0 0.00 0.00 0.00 70 1011.1
20260507204831 68 311 6.0 13.0 0.00 0.00 0.00 72 1011.1
20260507202832 67 311 6.0 14.0 0.00 0.00 0.00 72 1011.2
20260507202329 67 308 6.0 14.0 0.00 0.00 0.00 72 1011.2
20260507201325 67 346 6.0 12.0 0.00 0.00 0.00 73 1011.2
20260507200326 67 315 6.0 12.0 0.00 0.00 0.00 73 1011.2
20260507194819 67 311 7.0 12.0 0.00 0.00 0.00 72 1011.2
20260507193817 67 348 6.0 12.0 0.00 0.00 0.00 71 1011.2
20260507193316 68 312 6.0 12.0 0.00 0.00 0.00 71 1011.2
20260507192819 68 300 5.0 12.0 0.00 0.00 0.00 72 1011.2
20260507192317 68 324 5.0 12.0 0.00 0.00 0.00 72 1011.2
20260507191812 68 331 6.0 12.0 0.00 0.00 0.00 72 1011.2
20260507191310 68 355 6.0 12.0 0.00 0.00 0.00 71 1011.2
20260507190808 68 328 5.0 11.0 0.00 0.00 0.00 71 1011.2
20260507190308 68 331 6.0 14.0 0.00 0.00 0.00 74 1011.2
20260507185809 67 11 6.0 14.0 0.00 0.00 0.00 72 1011.3
20260507185305 67 336 6.0 13.0 0.00 0.00 0.00 72 1011.3
20260507184804 68 11 6.0 11.0 0.00 0.00 0.00 71 1011.3
20260507184305 68 318 6.0 11.0 0.00 0.00 0.00 71 1011.3
20260507183801 68 330 6.0 10.0 0.00 0.00 0.00 72 1011.3
20260507183300 69 313 5.0 12.0 0.00 0.00 0.00 71 1011.3
20260507182758 70 326 5.0 12.0 0.00 0.00 0.00 70 1011.3
20260507182307 69 22 5.0 10.0 0.00 0.00 0.00 70 1011.3
20260507181802 70 311 5.0 10.0 0.00 0.00 0.00 69 1011.3
20260507181256 70 317 4.0 9.0 0.00 0.00 0.00 70 1011.3
20260507180754 70 336 3.0 8.0 0.00 0.00 0.00 70 1011.3
20260507180251 70 334 3.0 9.0 0.00 0.00 0.00 70 1011.3
20260507175753 70 338 4.0 9.0 0.00 0.00 0.00 71 1011.3
20260507175250 70 317 4.0 9.0 0.00 0.00 0.00 71 1011.3
20260507174248 70 336 4.0 9.0 0.00 0.00 0.00 72 1011.4
20260507173246 69 327 3.0 8.0 0.00 0.00 0.00 74 1011.4
20260507172750 69 325 3.0 8.0 0.00 0.00 0.00 73 1011.7
20260507172244 68 317 3.0 7.0 0.00 0.00 0.00 75 1011.7
20260507171744 67 329 3.0 7.0 0.00 0.00 0.00 76 1011.7
20260507171241 67 339 3.0 7.0 0.00 0.00 0.00 76 1011.7
20260507170731 66 20 3.0 7.0 0.00 0.00 0.00 79 1011.7
20260507170230 65 11 4.0 7.0 0.00 0.00 0.00 80 1011.7
20260507165724 64 355 4.0 8.0 0.00 0.00 0.00 81 1011.8
20260507165224 64 337 4.0 8.0 0.00 0.00 0.00 81 1011.8
20260507164722 63 12 3.0 8.0 0.00 0.00 0.00 84 1011.8
20260507164222 62 355 4.0 9.0 0.00 0.00 0.00 85 1011.8
20260507163719 61 342 4.0 9.0 0.00 0.00 0.00 85 1011.8
20260507163215 61 321 3.0 10.0 0.00 0.00 0.00 87 1011.8
20260507162714 60 5 3.0 9.0 0.00 0.00 0.00 88 1011.8
20260507162210 60 0 4.0 9.0 0.00 0.00 0.00 89 1011.8
20260507161713 59 355 4.0 8.0 0.00 0.00 0.00 89 1011.8
20260507161208 59 347 4.0 8.0 0.00 0.00 0.00 91 1011.8
20260507160703 59 344 4.0 8.0 0.00 0.00 0.00 92 1011.8
20260507160201 58 322 4.0 8.0 0.00 0.00 0.00 94 1011.8
20260507155700 57 331 4.0 10.0 0.00 0.00 0.00 95 1011.9
20260507155159 57 313 4.0 10.0 0.00 0.00 0.00 95 1011.8
20260507154654 56 331 4.0 9.0 0.00 0.00 0.00 95 1011.8
20260507154156 56 304 3.0 9.0 0.00 0.00 0.00 96 1011.7
20260507153655 56 313 4.0 8.0 0.00 0.00 0.00 96 1011.7
20260507153150 56 333 4.0 8.0 0.00 0.00 0.00 96 1011.7
20260507152652 56 333 3.0 8.0 0.00 0.00 0.00 96 1011.7
20260507151654 55 336 3.0 7.0 0.00 0.00 0.00 97 1011.7
20260507151149 55 325 3.0 7.0 0.00 0.00 0.00 96 1011.7
20260507150649 55 333 2.0 7.0 0.00 0.00 0.00 96 1011.7
20260507150147 55 339 3.0 9.0 0.00 0.00 0.00 96 1011.7
20260507145645 54 324 3.0 9.0 0.00 0.00 0.00 96 1011.7
20260507145146 54 313 3.0 8.0 0.00 0.00 0.00 96 1011.7
20260507144645 54 326 4.0 8.0 0.00 0.00 0.00 96 1011.7
20260507144146 54 317 3.0 8.0 0.00 0.00 0.00 96 1011.8
20260507143644 54 355 3.0 8.0 0.00 0.00 0.00 96 1011.8
20260507143138 53 335 4.0 8.0 0.00 0.00 0.00 96 1011.8
20260507142636 53 317 3.0 8.0 0.00 0.00 0.00 96 1011.6
20260507142143 53 326 2.0 6.0 0.00 0.00 0.00 96 1011.6
20260507141635 53 331 3.0 8.0 0.00 0.00 0.00 96 1011.6
20260507141135 53 331 3.0 8.0 0.00 0.00 0.00 96 1011.6
20260507140637 53 329 3.0 6.0 0.00 0.00 0.00 96 1011.6
20260507140136 53 329 2.0 6.0 0.00 0.00 0.00 96 1011.6
20260507135635 52 331 2.0 5.0 0.00 0.00 0.00 96 1011.4
20260507135131 52 331 3.0 5.0 0.00 0.00 0.00 95 1011.4
20260507134633 52 331 2.0 6.0 0.00 0.00 0.00 95 1011.4
20260507133625 52 331 2.0 6.0 0.00 0.00 0.00 95 1011.4
20260507133126 52 308 1.0 4.0 0.00 0.00 0.00 95 1011.4
20260507132626 52 344 1.0 4.0 0.00 0.00 0.00 95 1011.4
20260507131621 52 344 3.0 7.0 0.00 0.00 0.00 95 1011.4
20260507131120 52 344 2.0 7.0 0.00 0.00 0.00 95 1011.1
20260507130118 53 348 2.0 6.0 0.00 0.00 0.00 95 1011.1
20260507125616 53 348 2.0 6.0 0.00 0.00 0.00 95 1011.1
20260507125116 53 351 2.0 6.0 0.00 0.00 0.00 95 1011.1
20260507124615 53 355 2.0 6.0 0.00 0.00 0.00 95 1011.1
20260507124112 53 321 2.0 6.0 0.00 0.00 0.00 95 1011.2
20260507123609 53 320 2.0 6.0 0.00 0.00 0.00 95 1011.2
20260507123107 53 319 2.0 5.0 0.00 0.00 0.00 95 1011.2
20260507122605 53 319 2.0 5.0 0.00 0.00 0.00 95 1011.2
20260507122108 53 318 2.0 6.0 0.00 0.00 0.00 95 1011.2
20260507121102 52 319 1.0 4.0 0.00 0.00 0.00 95 1011.3
20260507120602 52 319 2.0 4.0 0.00 0.00 0.00 95 1011.3
20260507115602 52 318 0.0 2.0 0.00 0.00 0.00 94 1011.3
20260507115103 53 319 0.0 2.0 0.00 0.00 0.00 94 1011.3
20260507114601 53 319 1.0 3.0 0.00 0.00 0.00 95 1011.3
20260507114053 53 318 1.0 4.0 0.00 0.00 0.00 94 1011.4
20260507113550 53 319 1.0 4.0 0.00 0.00 0.00 95 1011.4
20260507113045 52 319 1.0 3.0 0.00 0.00 0.00 95 1011.4
20260507112540 52 319 1.0 3.0 0.00 0.00 0.00 94 1011.5
20260507111540 52 319 2.0 4.0 0.00 0.00 0.00 94 1011.5
20260507111036 53 319 2.0 4.0 0.00 0.00 0.00 94 1011.6
20260507110543 53 318 2.0 4.0 0.00 0.00 0.00 94 1011.6
20260507110037 53 318 2.0 5.0 0.00 0.00 0.00 94 1011.6
20260507105534 53 318 2.0 5.0 0.00 0.00 0.00 94 1011.6
20260507105034 53 318 2.0 6.0 0.00 0.00 0.00 94 1011.6
20260507104532 53 319 2.0 6.0 0.00 0.00 0.00 94 1011.6
20260507104029 53 309 1.0 4.0 0.00 0.00 0.00 94 1011.8
20260507103524 53 309 2.0 6.0 0.00 0.00 0.00 94 1011.8
20260507103027 53 309 2.0 6.0 0.00 0.00 0.00 94 1011.8
20260507102021 53 290 1.0 3.0 0.00 0.00 0.00 94 1012.1
20260507101521 53 290 1.0 5.0 0.00 0.00 0.00 94 1012.1
20260507101022 53 290 1.0 5.0 0.00 0.00 0.00 94 1012.0
20260507100019 52 315 0.0 2.0 0.00 0.00 0.00 93 1012.0
20260507094517 53 315 0.0 2.0 0.00 0.00 0.00 93 1012.0
20260507094015 53 315 0.0 2.0 0.00 0.00 0.00 93 1012.1
20260507093511 53 315 0.0 1.0 0.00 0.00 0.00 93 1012.1
20260507092513 54 315 0.0 3.0 0.00 0.00 0.00 93 1012.1
20260507092009 54 315 0.0 3.0 0.00 0.00 0.00 93 1012.1
20260507091007 54 315 2.0 5.0 0.00 0.00 0.00 93 1012.4
20260507090505 54 315 2.0 5.0 0.00 0.00 0.00 93 1012.4
20260507090005 55 320 2.0 4.0 0.00 0.00 0.00 93 1012.4
20260507085459 55 320 2.0 5.0 0.00 0.00 0.00 92 1012.6
20260507085005 55 320 2.0 5.0 0.00 0.00 0.00 92 1012.6
20260507083957 55 331 2.0 5.0 0.00 0.00 0.00 92 1012.6
20260507083449 55 333 1.0 3.0 0.00 0.00 0.00 92 1012.6
20260507082445 55 333 1.0 5.0 0.00 0.00 0.00 92 1012.7
20260507081943 55 333 2.0 5.0 0.00 0.00 0.00 92 1012.7
20260507081438 55 333 2.0 6.0 0.00 0.00 0.00 91 1012.7
20260507080940 56 333 2.0 6.0 0.00 0.00 0.00 91 1012.9
20260507080437 56 336 1.0 3.0 0.00 0.00 0.00 91 1012.9
20260507075935 56 336 1.0 3.0 0.00 0.00 0.00 91 1012.9
20260507075430 56 336 0.0 2.0 0.00 0.00 0.00 91 1013.1
20260507074927 56 336 0.0 2.0 0.00 0.00 0.00 91 1013.1
20260507074427 56 336 1.0 3.0 0.00 0.00 0.00 91 1013.1
20260507073927 56 336 1.0 3.0 0.00 0.00 0.00 91 1013.1
20260507073422 56 336 1.0 3.0 0.00 0.00 0.00 91 1013.1
20260507072922 56 336 1.0 4.0 0.00 0.00 0.00 91 1013.1
20260507072422 56 336 1.0 4.0 0.00 0.00 0.00 91 1013.1
20260507070916 56 336 2.0 4.0 0.00 0.00 0.00 91 1013.1
20260507070423 56 336 2.0 4.0 0.00 0.00 0.00 91 1013.1
20260507065916 56 336 1.0 4.0 0.00 0.00 0.00 91 1013.1
20260507065410 56 336 1.0 4.0 0.00 0.00 0.00 91 1013.1
20260507064905 56 336 2.0 4.0 0.00 0.00 0.00 91 1013.1
20260507064406 56 336 2.0 4.0 0.00 0.00 0.00 90 1013.1
20260507063905 56 336 1.0 4.0 0.00 0.00 0.00 90 1013.2
20260507063405 56 336 2.0 5.0 0.00 0.00 0.00 90 1013.2
20260507062906 56 336 2.0 5.0 0.00 0.00 0.00 90 1013.2
20260507061904 56 336 2.0 6.0 0.00 0.00 0.00 90 1013.2
20260507061401 56 336 2.0 6.0 0.00 0.00 0.00 90 1013.2
20260507060858 56 336 2.0 6.0 0.00 0.00 0.00 90 1013.2
20260507060352 56 337 2.0 6.0 0.00 0.00 0.00 90 1013.2
20260507055850 56 336 1.0 4.0 0.00 0.00 0.00 90 1013.3
20260507055350 56 336 2.0 6.0 0.00 0.00 0.00 90 1013.3
20260507054850 56 336 2.0 6.0 0.00 0.00 0.00 89 1013.3
20260507054350 56 336 2.0 5.0 0.00 0.00 0.00 89 1013.4
20260507053848 57 335 2.0 5.0 0.00 0.00 0.00 89 1013.4
20260507052849 57 336 1.0 5.0 0.00 0.00 0.00 89 1013.2
20260507052344 57 336 2.0 8.0 0.00 0.00 0.00 89 1013.2
20260507051836 57 334 2.0 8.0 0.00 0.00 0.00 89 1013.2
20260507050833 57 335 2.0 6.0 0.00 0.00 0.00 89 1013.2
20260507050329 57 333 2.0 6.0 0.00 0.00 0.00 89 1013.2
20260507045828 57 333 2.0 6.0 0.00 0.00 0.00 89 1013.2
20260507044819 57 320 3.0 7.0 0.00 0.00 0.00 89 1013.2
20260507044319 57 335 2.0 6.0 0.00 0.00 0.00 89 1013.1
20260507043814 57 334 2.0 5.0 0.00 0.00 0.00 89 1013.1
20260507043312 57 334 2.0 5.0 0.00 0.00 0.00 88 1013.1
20260507042813 57 335 2.0 5.0 0.00 0.00 0.00 88 1013.1
20260507042311 57 335 2.0 4.0 0.00 0.00 0.00 88 1013.1
20260507041812 57 335 2.0 5.0 0.00 0.00 0.00 88 1013.1
20260507041312 57 335 1.0 5.0 0.00 0.00 0.00 87 1012.9
20260507040812 57 336 2.0 7.0 0.00 0.00 0.00 87 1012.9
20260507040313 57 336 2.0 7.0 0.00 0.00 0.00 87 1012.9